When you browse on this site, cookies collect data to enhance your experience and personalize the content and advertising you see.
Visit our Privacy Policy to learn more. By continuing to use the site, you agree to this use of cookies and data.

Meteo pe oră la Dziady

Astăzi, 26 Septembrie, Sâmbătă

Timp Temperatura Precipitaţii Vânt Presiune Umiditate
00:00 +17°C° 0.2 mm 2 m/s 724 mmHg 90%
01:00 +16°C° 0 mm 2 m/s 724 mmHg 90%
02:00 +17°C° 0.6 mm 2 m/s 723 mmHg 89%
03:00 +17°C° 0.6 mm 3 m/s 723 mmHg 88%
04:00 +17°C° 0.6 mm 3 m/s 722 mmHg 87%
05:00 +17°C° 0 mm 4 m/s 722 mmHg 82%
06:00 +17°C° 0 mm 5 m/s 721 mmHg 78%
07:00 +17°C° 0 mm 6 m/s 721 mmHg 74%
08:00 +20°C° 0 mm 7 m/s 721 mmHg 69%
09:00 +21°C° 0 mm 8 m/s 721 mmHg 64%
10:00 +22°C° 0 mm 8 m/s 722 mmHg 59%
11:00 +20°C° 0.8 mm 7 m/s 722 mmHg 68%
12:00 +19°C° 0.8 mm 6 m/s 722 mmHg 77%
13:00 +17°C° 0.8 mm 4 m/s 722 mmHg 86%
14:00 +17°C° 0.3 mm 4 m/s 723 mmHg 82%
15:00 +17°C° 0.3 mm 4 m/s 723 mmHg 79%
16:00 +16°C° 0.3 mm 3 m/s 724 mmHg 76%
17:00 +16°C° 0 mm 3 m/s 724 mmHg 77%
18:00 +14°C° 0 mm 3 m/s 725 mmHg 77%
19:00 +13°C° 0 mm 3 m/s 725 mmHg 78%
20:00 +13°C° 0.1 mm 3 m/s 725 mmHg 80%
21:00 +12°C° 0.1 mm 3 m/s 726 mmHg 82%
22:00 +11°C° 0.1 mm 3 m/s 726 mmHg 84%
23:00 +11°C° 0.9 mm 4 m/s 726 mmHg 85%

Mâine, 27 Septembrie, Duminică

Timp Temperatura Precipitaţii Vânt Presiune Umiditate
00:00 +11°C° 0.9 mm 4 m/s 726 mmHg 86%
01:00 +9°C° 0.9 mm 5 m/s 726 mmHg 88%
02:00 +9°C° 1.8 mm 5 m/s 725 mmHg 89%
03:00 +9°C° 1.8 mm 6 m/s 725 mmHg 91%
04:00 +8°C° 1.8 mm 6 m/s 725 mmHg 93%
05:00 +8°C° 2.1 mm 6 m/s 725 mmHg 92%
06:00 +8°C° 2.1 mm 6 m/s 725 mmHg 92%
07:00 +8°C° 2.1 mm 7 m/s 725 mmHg 92%
08:00 +8°C° 1.6 mm 6 m/s 726 mmHg 91%
09:00 +8°C° 1.6 mm 6 m/s 726 mmHg 90%
10:00 +8°C° 1.6 mm 6 m/s 727 mmHg 89%
11:00 +8°C° 0.6 mm 6 m/s 728 mmHg 87%
12:00 +8°C° 0.6 mm 6 m/s 728 mmHg 85%
13:00 +9°C° 0.6 mm 6 m/s 729 mmHg 82%
14:00 +9°C° 0.6 mm 5 m/s 729 mmHg 82%
15:00 +10°C° 0.6 mm 4 m/s 730 mmHg 81%
16:00 +11°C° 0.6 mm 3 m/s 731 mmHg 81%
17:00 +10°C° 0.2 mm 3 m/s 731 mmHg 81%
18:00 +10°C° 0.2 mm 3 m/s 732 mmHg 82%
19:00 +9°C° 0.2 mm 3 m/s 732 mmHg 83%
20:00 +9°C° 0 mm 3 m/s 733 mmHg 82%
21:00 +8°C° 0 mm 4 m/s 734 mmHg 82%
22:00 +8°C° 0 mm 4 m/s 735 mmHg 82%
23:00 +8°C° 0 mm 4 m/s 735 mmHg 82%

Poimâine, 28 Septembrie, Luni

Timp Temperatura Precipitaţii Vânt Presiune Umiditate
00:00 +8°C° 0 mm 3 m/s 735 mmHg 83%
01:00 +8°C° 0 mm 3 m/s 735 mmHg 83%
02:00 +8°C° 0 mm 3 m/s 735 mmHg 83%
03:00 +8°C° 0 mm 3 m/s 736 mmHg 82%
04:00 +7°C° 0 mm 3 m/s 736 mmHg 82%
05:00 +8°C° 0 mm 3 m/s 736 mmHg 80%
06:00 +7°C° 0 mm 4 m/s 736 mmHg 78%
07:00 +8°C° 0 mm 4 m/s 736 mmHg 76%
08:00 +10°C° 0.1 mm 4 m/s 736 mmHg 75%
09:00 +10°C° 0.1 mm 4 m/s 736 mmHg 74%
10:00 +10°C° 0.1 mm 5 m/s 736 mmHg 73%
11:00 +10°C° 0.3 mm 5 m/s 736 mmHg 74%
12:00 +11°C° 0.3 mm 4 m/s 736 mmHg 75%
13:00 +11°C° 0.3 mm 4 m/s 736 mmHg 77%
14:00 +12°C° 0 mm 4 m/s 736 mmHg 77%
15:00 +12°C° 0 mm 4 m/s 735 mmHg 78%
16:00 +12°C° 0 mm 4 m/s 735 mmHg 79%
17:00 +12°C° 0 mm 3 m/s 735 mmHg 82%
18:00 +12°C° 0 mm 3 m/s 735 mmHg 85%
19:00 +12°C° 0 mm 3 m/s 735 mmHg 88%
20:00 +12°C° 0 mm 2 m/s 735 mmHg 89%
21:00 +12°C° 0 mm 2 m/s 735 mmHg 90%
22:00 +11°C° 0 mm 1 m/s 735 mmHg 91%
23:00 +11°C° 0 mm 1 m/s 735 mmHg 92%

29 Septembrie, Marţi

Timp Temperatura Precipitaţii Vânt Presiune Umiditate
00:00 +11°C° 0 mm 1 m/s 735 mmHg 92%
01:00 +11°C° 0 mm 1 m/s 735 mmHg 92%
02:00 +11°C° 0 mm 1 m/s 735 mmHg 92%
03:00 +10°C° 0 mm 1 m/s 735 mmHg 93%
04:00 +10°C° 0 mm 1 m/s 735 mmHg 93%
05:00 +11°C° 0 mm 1 m/s 735 mmHg 93%
06:00 +10°C° 0 mm 2 m/s 735 mmHg 92%
07:00 +10°C° 0 mm 2 m/s 735 mmHg 92%
08:00 +12°C° 0 mm 2 m/s 735 mmHg 91%
09:00 +12°C° 0 mm 2 m/s 735 mmHg 90%
10:00 +12°C° 0 mm 2 m/s 736 mmHg 88%
11:00 +13°C° 0.2 mm 2 m/s 736 mmHg 88%
12:00 +12°C° 0.2 mm 3 m/s 736 mmHg 87%
13:00 +12°C° 0.2 mm 3 m/s 736 mmHg 87%
14:00 +12°C° 0.4 mm 3 m/s 736 mmHg 88%
15:00 +12°C° 0.4 mm 3 m/s 736 mmHg 90%
16:00 +12°C° 0.4 mm 3 m/s 736 mmHg 92%
17:00 +12°C° 0.5 mm 3 m/s 736 mmHg 93%
18:00 +12°C° 0.5 mm 3 m/s 736 mmHg 94%
19:00 +12°C° 0.5 mm 3 m/s 736 mmHg 95%
20:00 +12°C° 0.2 mm 3 m/s 736 mmHg 96%
21:00 +13°C° 0.2 mm 2 m/s 736 mmHg 96%
22:00 +12°C° 0.2 mm 2 m/s 736 mmHg 96%
23:00 +12°C° 0.2 mm 2 m/s 736 mmHg 96%

30 Septembrie, Miercuri

Timp Temperatura Precipitaţii Vânt Presiune Umiditate
00:00 +12°C° 0.2 mm 2 m/s 736 mmHg 96%
01:00 +12°C° 0.2 mm 2 m/s 736 mmHg 97%
02:00 +12°C° 0.2 mm 2 m/s 736 mmHg 97%
03:00 +12°C° 0.2 mm 2 m/s 736 mmHg 96%
04:00 +12°C° 0.2 mm 2 m/s 736 mmHg 96%
05:00 +11°C° 0.2 mm 3 m/s 736 mmHg 96%
06:00 +11°C° 0.2 mm 3 m/s 736 mmHg 96%
07:00 +12°C° 0.2 mm 3 m/s 736 mmHg 96%
08:00 +12°C° 0.1 mm 3 m/s 735 mmHg 95%
09:00 +12°C° 0.1 mm 3 m/s 735 mmHg 94%
10:00 +12°C° 0.1 mm 3 m/s 735 mmHg 93%
11:00 +13°C° 0.1 mm 4 m/s 735 mmHg 92%
12:00 +13°C° 0.1 mm 4 m/s 735 mmHg 90%
13:00 +13°C° 0.1 mm 4 m/s 735 mmHg 89%
14:00 +13°C° 1 mm 4 m/s 734 mmHg 90%
15:00 +13°C° 1 mm 4 m/s 734 mmHg 92%
16:00 +13°C° 1 mm 4 m/s 734 mmHg 93%
17:00 +13°C° 1.8 mm 5 m/s 734 mmHg 94%
18:00 +13°C° 1.8 mm 5 m/s 734 mmHg 95%
19:00 +12°C° 1.8 mm 5 m/s 734 mmHg 95%
20:00 +12°C° 0.6 mm 4 m/s 734 mmHg 95%
21:00 +12°C° 0.6 mm 4 m/s 734 mmHg 95%
22:00 +12°C° 0.6 mm 3 m/s 733 mmHg 94%
23:00 +12°C° 0.2 mm 3 m/s 733 mmHg 94%

1 Octombrie, Joi

Timp Temperatura Precipitaţii Vânt Presiune Umiditate
00:00 +11°C° 0.2 mm 3 m/s 733 mmHg 94%
01:00 +12°C° 0.2 mm 2 m/s 732 mmHg 94%
02:00 +11°C° 0.1 mm 3 m/s 732 mmHg 94%
03:00 +11°C° 0.1 mm 3 m/s 732 mmHg 94%
04:00 +11°C° 0.1 mm 3 m/s 731 mmHg 94%
05:00 +11°C° 0.7 mm 3 m/s 731 mmHg 94%
06:00 +11°C° 0.7 mm 3 m/s 731 mmHg 94%
07:00 +11°C° 0.7 mm 3 m/s 731 mmHg 94%
08:00 +11°C° 0.3 mm 3 m/s 731 mmHg 94%
09:00 +11°C° 0.3 mm 3 m/s 731 mmHg 94%
10:00 +11°C° 0.3 mm 3 m/s 731 mmHg 94%
11:00 +11°C° 0.4 mm 3 m/s 730 mmHg 94%
12:00 +12°C° 0.4 mm 2 m/s 730 mmHg 94%
13:00 +12°C° 0.4 mm 2 m/s 730 mmHg 94%
14:00 +12°C° 0.3 mm 2 m/s 730 mmHg 94%
15:00 +12°C° 0.3 mm 1 m/s 730 mmHg 94%
16:00 +12°C° 0.3 mm 1 m/s 730 mmHg 94%
17:00 +12°C° 0.2 mm 1 m/s 730 mmHg 95%
18:00 +12°C° 0.2 mm 1 m/s 730 mmHg 95%
19:00 +11°C° 0.2 mm 0 m/s 730 mmHg 95%
20:00 +11°C° 0.1 mm 0 m/s 730 mmHg 95%
21:00 +11°C° 0.1 mm 0 m/s 730 mmHg 95%
22:00 +11°C° 0.1 mm 0 m/s 730 mmHg 95%
23:00 +11°C° 0.1 mm 0 m/s 729 mmHg 96%
Arată mai mult